Showing default

GNOMES-4, 58462

Orbit data source: Space-Track

GNOMES-4, 58462 is a payload satellite owned by PlanetiQ (US) in SSO that was launched on Fri, 01 Dec 2023 UTC via an FALCON 9 launch vehicle from the Air Force Western Test Range (AFWTR). Payload-class satellites include a variety of spacecraft equipped with specific instruments for various scientific and technological missions. These include communications satellites like Starlink; space stations such as the ISS; scientific satellites like the Hubble; Earth observation satellites from companies like Planet Labs, Umbra, and HawkEye 360; GPS; miniature CubeSats for education and research; and military/defense satellites.

Loading next visibility...
Identifier
58462, 2023-185A
Orbit
SSO
Last TLE update
10 hours ago
Origin
Manufacturer
Blue Canyon
Mission
Operational Commercial Communications
Bus & Motor
XSAT, Unknown motor
Mass
~30 kg wet, ~30 kg dry
Launch date (UTC)
2023-12-01 (1 year ago)
Launch vehicle
FALCON 9
Launch site
Air Force Western Test Range (AFWTR)
Object type
Payload
Rocket body
Debris
Shape & HBR
Box + 2 Pan, 0.6 m
Radar Cross Section
0.162 m², Medium (>0.1 m² and < 1m²)

Expand to show TLE details & history

TLE from 10 hours ago
0 GNOMES-4
1 58462U 23185A   25131.16516964  .00005525  00000-0  39067-3 0  9999
2 58462  97.5564 196.5119 0013772 226.4166 133.5918 15.05204948 79017
Epoch: 2025-05-11T03:57Z
Definitive object data (Epoch: 2025-05-11T03:57:50.656Z)
Latitude
-0.00008°
Longitude
-92.14568°
Altitude
560.531 km
Speed
7.578 km/s
True Right ascension
13h 06m 02s
True Declination
0° 00' 00"
Sunlit
Object was in full shadow at TLE epoch
Visualization TLE readout
Latitude
44.52278°
Longitude
95.72425°
Altitude
557.591 km
Speed
7.587 km/s
Apparent Right ascension
05h 59m 01s
Apparent Declination
10° 54' 28"
Sunlit
Object is in daylight
Visualization observer readout
Local Sidereal Time
22:26:09
Azimuth
66.44° ENE
Elevation
-10.106°
Doppler factor
1
Orbital elements
Apogee altitude
557.407 km
Perigee altitude
538.33 km
Semi-major axis
6,926.006 km
Eccentricity
0.0013772
Inclination
97.5564°
RAAN
196.5119°
Arg. of periapsis
226.4166°
True anomaly
133.70597°
Mean anomaly
133.5918°
Eccentric anomaly
133.6489°
Mean motion
3.76547 °/min
BSTAR
0.00039067
Orbital period
95.61 mins
Loading maneuver chart data...
Loading SW <> Apogee altitude chart data...
Loading historical data...
Loading historical data...
Loading historical data...
Loading historical data...
Loading historical data...
Loading historical data...
Loading historical data...

GNOMES-4 Visibility forecast

Observer location: undefined°, undefined°

Span
Click to sort rows by Start time (UTC) header in descending order
Start Az.
Max El. time (UTC)
Max El. Az.
Max El.
End time (UTC)
End Az.
7 mins2025-05-11 17:17:10.294Z8.626° NNE2025-05-11 17:21:10.294Z229.244° WSW42.834°2025-05-11 17:24:10.294Z198.746° SSW
6 mins2025-05-12 04:02:10.294Z143.224° SSE2025-05-12 04:05:10.294Z49.691° ENE36.638°2025-05-12 04:08:10.294Z0.202° NNE
|